TDRS 5

Last updated on Sat Sep 12 2026 00:02:55 GMT+0000 (Coordinated Universal Time)

1 21639U 91054B 26254.55639076 .00000074 00000+0 00000+0 0 9999 2 21639 14.0613 353.1301 0009268 252.0179 138.2405 1.00279051128587
UTC large
Height (km)
Speed (km/s)
/
Latitude / Longitude
Inclination (degrees)
Orbital Period (minutes)
Azimuth
Elevation
Range (km)
Doppler Factor

Next 0 passes for location: London (51.5072 / 0.1276)

No passes found over London.
TDRS 5